Location: Helion Bumpstead
(52.0500°N, 0.4000°E)
Time: 21:03:21
(UTC+00:00)

Lacrosse 4 Rocket - Pass Details

Date: 15 November 2025
Orbit: 513 x 567 km, 68.0° (Epoch: 06 December)

Event Time Altitude Azimuth Distance (km) Brightness Sun altitude
Exits shadow 04:21:33 14° 14° (NNE) 1,529 3.7 -27.0°
Maximum altitude 04:22:17 15° 27° (NNE) 1,494 3.8 -26.9°
Drops below altitude 10° 04:24:38 10° 64° (ENE) 1,778 4.8 -26.5°
Sets 04:27:36 0° 88° (E) 2,653 6.2 -26.0°
